This demonstration page uses our WeatherBlox Daily Observations layout. Learn more.

Left ArrowRight Arrow

Hourly Observations for December 18, 2019

Temp ( °F °C ) Dew Point ( °F °C ) Humidity (%) Winds ( mph kmh ) Pressure ( in mb ) Visibility ( mi km ) Precip ( " mm )
12:51 am 00:51 Clear 37 2.8 15 -9.4 41 41 ESE 12 19 30.33 1027 10 16 N/A
1:51 am 01:51 Clear 37 2.8 15 -9.4 41 41 E 12 19 30.33 1027 10 16 N/A
2:51 am 02:51 Clear 36 2.2 14 -10 40 40 ESE 12 19 30.32 1027 10 16 N/A
3:51 am 03:51 Clear 35 1.7 15 -9.4 44 44 ESE 10 17 30.32 1027 10 16 N/A
4:51 am 04:51 Clear 34 1.1 16 -8.9 48 48 SSE 14 22 30.31 1026 10 16 N/A
5:51 am 05:51 Clear 33 0.6 16 -8.9 49 49 ESE 10 17 30.33 1027 10 16 N/A
6:51 am 06:51 Clear 34 1.1 14 -10 44 44 ESE 13 20 30.35 1028 10 16 N/A
7:51 am 07:51 Sunny 34 1.1 15 -9.4 46 46 ESE 10 17 30.35 1028 10 16 N/A
8:51 am 08:51 Sunny 38 3.3 14 -10 37 37 ESE 12 19 30.35 1028 10 16 N/A
9:51 am 09:51 Sunny 42 5.6 14 -10 32 32 ESE 10 17 30.35 1028 10 16 N/A
10:51 am 10:51 Sunny 46 7.8 13 -10.6 26 26 ESE 14 22 30.30 1026 10 16 N/A
11:51 am 11:51 Sunny 50 10 12 -11.1 22 22 ESE 21 33 30.25 1024 10 16 N/A
12:51 pm 12:51 Sunny 51 10.6 12 -11.1 21 21 SE 21 33 30.19 1022 10 16 N/A
1:51 pm 13:51 Sunny 53 11.7 9 -12.8 17 17 SSE 21 33 30.15 1021 10 16 N/A
2:51 pm 14:51 Sunny 51 10.6 9 -12.8 18 18 SSE 15 24 30.13 1020 10 16 N/A
3:51 pm 15:51 Sunny 52 11.1 12 -11.1 20 20 SSE 15 24 30.11 1020 10 16 N/A
4:51 pm 16:51 Sunny 50 10 12 -11.1 22 22 SSE 10 17 30.12 1020 10 16 N/A
5:51 pm 17:51 Clear 46 7.8 15 -9.4 29 29 SE 10 17 30.13 1020 10 16 N/A
6:51 pm 18:51 Clear 42 5.6 16 -8.9 35 35 ESE 10 17 30.15 1021 10 16 N/A
7:51 pm 19:51 Clear 40 4.4 15 -9.4 36 36 SE 7 11 30.17 1022 10 16 N/A
8:51 pm 20:51 Clear 40 4.4 15 -9.4 36 36 SE 10 17 30.16 1022 10 16 N/A
9:51 pm 21:51 Clear 38 3.3 15 -9.4 39 39 E 8 13 30.16 1021 10 16 N/A
10:51 pm 22:51 Clear 40 4.4 14 -10 35 35 SE 9 15 30.13 1020 10 16 N/A
11:51 pm 23:51 Clear 38 3.3 14 -10 37 37 ESE 8 13 30.12 1020 10 16 N/A

Powered by AerisWeather